Location: Bremen
(53.0793°N, 8.8017°E)
Time: 02:18:12
(UTC+01:00)

deb Explorer IX - Pass Details

Date: 16 December 2021
Orbit: 544 x 1082 km, 38.8° (Epoch: 16 January)

Event Time Altitude Azimuth Distance (km) Brightness Sun altitude
Rises 07:47:36 0° 243° (WSW) 3,656 ? -6.4°
Reaches altitude 10° 07:51:05 10° 228° (SW) 2,612 ? -6.0°
Maximum altitude 07:55:23 20° 184° (S) 1,881 ? -5.4°
Drops below altitude 10° 07:59:15 10° 139° (SE) 2,330 ? -4.9°
Sets 08:02:12 0° 122° (ESE) 3,162 ? -4.6°
